Simultaneous Nadir Overpasses (SNOs) Predictions

Prediction of SNOs between GOES-15 and TERRA Satellite Orbit:

Table of predicted SNOs for the next 14.0 days since TLE Epoch: 10/23/2016
Index Date Time (GOES-15) GOES-15 Lat,Lon TERRA Lat,Lon Distance(km) Time Diff (sec)
1 10/23/2016 19:27:52 -0.28,-134.58 -0.36,-134.09 55.12 80
2 10/25/2016 19:15:42 -0.28,-134.49 -1.00,-131.15 380.19 80
3 10/26/2016 07:37:06 0.27,-134.43 -0.15,-136.33 216.41 80
4 10/28/2016 07:22:17 0.27,-134.33 0.49,-133.39 107.72 80
5 10/28/2016 19:43:33 -0.27,-134.33 0.62,-138.54 478.78 80
6 10/30/2016 07:10:08 0.27,-134.23 1.08,-130.43 431.02 80
7 10/30/2016 19:31:24 -0.27,-134.23 0.05,-135.59 155.58 80
8 11/01/2016 19:21:57 -0.26,-134.11 -0.61,-132.66 166.69 80
9 11/02/2016 07:43:20
